Regional Weather Roundup
Issued by NWS Sterling, VA

Home | Current Version | Previous Version | Graphics & Text | Print | Product List | Glossary On
Versions: 1 2 3 4 5 6 7 8 9 10 11 12 13 14 15 16 17 18 19 20 21 22 23 24 25 26 27
000
ASUS41 KLWX 160911
RWRLWX

REGIONAL WEATHER ROUNDUP
NATIONAL WEATHER SERVICE BALTIMORE MD/WASHINGTON DC
400 AM EST TUE JAN 16 2018

Note: "FAIR" indicates few or no clouds below 12,000 feet
with no significant weather and/or obstructions to visibility.
 TC=TEMPERATURE CELSIUS

 * =Non NWS site. Station does not report precipitation (e.g. rain,
    snow, etc.), thunder, or fog.

DCZ001-MDZ009-015-VAZ040>042-051-053>054-161000-
WASHINGTON METRO

CITY           SKY/WX    TMP DP  RH WIND       PRES   REMARKS
WASHINGTON NAT CLOUDY    31  28  89 SE5       30.46F WCI  26
DULLES         CLOUDY    27  25  92 CALM      30.44S
ANDREWS AFB    CLOUDY    28  27  93 SE3       30.44S FOG
FT BELVOIR     CLOUDY    30  27  90 CALM      30.46S
QUANTICO       CLOUDY    28  25  88 CALM      30.47F
COLLEGE PARK*  CLOUDY    29  26  90 CALM      30.45F
LEESBURG*      CLOUDY    28  28 100 S3        30.45R
MANASSAS*      FAIR      22  19  89 CALM      30.46S
GAITHERSBURG*  MOCLDY    27  25  92 CALM      30.43F

$$

MDZ006>007-011-014-161000-
BALTIMORE METRO

CITY           SKY/WX    TMP DP  RH WIND       PRES   REMARKS
BWI AIRPORT    CLOUDY    28  25  88 E3        30.45F
MD SCIENCE CTR   N/A     31  26  82 MISG      30.46F
MARTIN STATE   CLOUDY    30  28  93 CALM      30.48F
ANNAPOLIS      CLOUDY    30  28  92 CALM      30.46F FOG
FORT MEADE*    CLOUDY    28  27  93 CALM      30.47F

$$

MDZ012-015-019>023-161000-
MARYLAND EASTERN SHORE

CITY           SKY/WX    TMP DP  RH WIND       PRES   REMARKS
OCEAN CITY     MOCLDY    29  29 100 NW7       30.44F FOG     WCI  22
SALISBURY      CLOUDY    27  27 100 NW5       30.45S WCI  22
BAY BRIDGE AP* CLOUDY    28  25  86 NW3       30.47S FOG
CAMBRIDGE*     CLOUDY    30  25  80 N5        30.46F WCI  25
EASTON*        CLOUDY    31  24  78 N3        30.49F

$$

MDZ017>025-161000-
SOUTHERN MARYLAND

CITY           SKY/WX    TMP DP  RH WIND       PRES   REMARKS
PATUXENT RIVER CLOUDY    29  29 100 CALM      30.46S FOG
ST INIGOES     FOG       30  29  96 CALM      30.46S VSB 1
LEONARDTOWN*   CLOUDY    30  28  93 CALM      30.47F

$$

MDZ003>005-161000-
NORTH CENTRAL MARYLAND

CITY           SKY/WX    TMP DP  RH WIND       PRES   REMARKS
FREDERICK*     CLOUDY    30  23  74 CALM      30.47F
HAGERSTOWN APT CLOUDY    26  21  81 CALM      30.40S
WESTMINSTER*   CLOUDY    28  27  93 S6        30.40S WCI  22

$$

MDZ501>502-161000-
WESTERN MARYLAND

CITY           SKY/WX    TMP DP  RH WIND       PRES   REMARKS
OAKLAND*       CLOUDY    23  23 100 W3        30.22R
CUMBERLAND*    MOCLDY   N/A N/A N/A CALM      30.43S

$$

VAZ025>031-161000-
SHENANDOAH VALLEY

CITY           SKY/WX    TMP DP  RH WIND       PRES   REMARKS
WINCHESTER*      N/A    N/A N/A N/A MISG        N/A
FRONT ROYAL*   MOCLDY    23  19  86 MISG      30.38S
LURAY*         FAIR      25  21  86 CALM      30.38F
NEW MARKET*    FAIR      22  15  74 NW5       30.38F WCI  16
STAUNTON*      FAIR      24  12  59 S5        30.38F WCI  18
WAYNESBORO*    FAIR      22  13  68 CALM      30.36S

$$

WVZ021-048>050-054>055-161000-
EASTERN WEST VIRGINIA PANHANDLE

CITY           SKY/WX    TMP DP  RH WIND       PRES   REMARKS
MARTINSBURG    CLOUDY    25  20  81 CALM      30.40S
PETERSBURG*    FAIR      20  16  84 CALM      30.37F

$$

VAZ036>039-050-161000-
CENTRAL FOOTHILLS

CITY           SKY/WX    TMP DP  RH WIND       PRES   REMARKS
CHARLOTTESVILL FAIR      24  13  62 SE3       30.41S
CULPEPER*      FAIR      23  21  89 CALM      30.46R
ORANGE*        FAIR      21  19  93 CALM      30.44R
GORDONSVILLE*  FAIR      21  20  97 CALM      30.43S
WARRENTON*     CLOUDY    25  22  89 CALM      30.44R FOG

$$

VAZ055>057-161000-
NORTH AND CENTRAL PIEDMONT

CITY           SKY/WX    TMP DP  RH WIND       PRES   REMARKS
FREDERICKSBRG* CLOUDY    28  28 100 CALM      30.46R
STAFFORD*      CLOUDY    26  26 100 CALM      30.49S

$$

NCZ024-NYZ072-PAZ021-071-VAZ022-071-161000-
OTHER REGIONAL OBSERVATIONS

CITY           SKY/WX    TMP DP  RH WIND       PRES   REMARKS
NEW YORK CITY  CLOUDY    26  21  81 NE5       30.52S WCI  20
PHILADELPHIA   CLOUDY    30  24  78 E9        30.48F WCI  22
PITTSBURGH     LGT SNOW  26  24  92 SW5       30.31R FOG     WCI  20
ROANOKE        FAIR      23  32 100 CALM      30.41S
RICHMOND       CLOUDY    27  26  96 NE3       30.45S FOG
RALEIGH        FAIR      21  16  81 CALM      30.45S

$$

ANZ530>537-161000-
MARINE OBSERVATIONS

STATION/POSITION TIME  TEMP    WIND        PRES
                       AIR SEA DIR/SP/G
                 (UTC) (F)     (DEG/KT/KT) (MB)
THOMAS PT LIGHT  0900   29 32  360/  3/  4   N/A
BALT KEY BRIDGE  0842   28      80/  1/  2 1031.8F
COVE POINT       0842   28     350/  5/  7 1032.0F
LEWISETTA        0842   30 32  300/  4/  4 1031.6R
SOLOMONS ISLAND  0842   29 34  360/  3/  5 1031.2F
PINEY POINT      0836          350/  3/  3   N/A

$$





USA.gov is the U.S. government's official web portal to all federal, state and local government web resources and services.